Temp
-6 -7 -7 -7 -7 -6 -6 -5 -5 -5 -5 -6 -5 -5 -5 -6 -6 -6 -6 -6 -6 -6 -6 -6 -5 -6 -6 -6 -6 -6 -6 -7 -6 -6 -6 -6 -6 -6 -6 -6 -6 -6 -6 -6 -6 -6 -6 -6 -6
-6 -6 -6 -7 -7 -7 -6 -6 -6 -6 -6 -5 -5 -5 -4 -5 -6 -6 -6 -6 -6 -6 -5 -5 -5 -5 -6 -6 -6 -6 -6 -6 -6 -6 -6 -6 -6 -6 -6 -6 -6 -6 -6 -6 -6 -6 -6 -6 -6
-6 -6 -6 -7 -6 -7 -6 -5 -6 -6 -6 -5 -5 -5 -4 -5 -6 -6 -6 -6 -6 -6 -6 -6 -6 -6 -6 -6 -7 -6 -6 -6 -6 -6 -6 -6 -6 -6 -6 -6 -6 -6 -6 -6 -6 -6 -6 -6 -6
-6 -6 -6 -6 -6 -6 -6 -6 -5 -5 -6 -5 -5 -5 -5 -5 -6 -6 -6 -6 -6 -6 -6 -6 -6 -6 -6 -7 -7 -6 -6 -7 -6 -6 -6 -6 -6 -6 -6 -6 -6 -6 -6 -6 -6 -6 -6 -6 -6
-5 -6 -6 -6 -5 -5 -5 -6 -5 -5 -5 -5 -5 -5 -5 -5 -5 -5 -6 -6 -6 -6 -6 -6 -6 -6 -6 -7 -7 -7 -6 -6 -6 -7 -7 -7 -6 -7 -7 -7 -7 -6 -6 -7 -7 -7 -6 -6 -6
-5 -5 -6 -5 -5 -5 -5 -5 -5 -5 -5 -5 -5 -4 -5 -5 -5 -5 -6 -6 -6 -6 -6 -6 -6 -6 -7 -7 -7 -7 -7 -7 -7 -7 -7 -7 -7 -7 -7 -7 -7 -7 -7 -7 -7 -7 -6 -6 -6
-5 -5 -5 -6 -5 -4 -4 -5 -5 -5 -5 -5 -5 -5 -6 -6 -5 -5 -6 -6 -6 -6 -6 -6 -6 -7 -7 -7 -7 -7 -7 -6 -7 -7 -7 -7 -7 -7 -7 -7 -7 -7 -7 -7 -7 -6 -6 -6 -6
-5 -5 -6 -5 -5 -5 -4 -4 -5 -5 -5 -5 -5 -5 -7 -7 -6 -6 -6 -6 -6 -6 -6 -6 -6 -7 -7 -7 -7 -7 -7 -7 -7 -7 -7 -7 -7 -7 -7 -7 -7 -7 -7 -7 -7 -7 -6 -6 -7
-5 -5 -5 -5 -5 -5 -4 -4 -4 -4 -4 -5 -5 -5 -5 -6 -6 -6 -6 -6 -6 -6 -6 -6 -7 -7 -7 -7 -7 -7 -7 -6 -7 -7 -7 -7 -8 -8 -8 -8 -7 -7 -7 -7 -7 -7 -7 -7 -7
-5 -4 -4 -5 -5 -5 -5 -4 -4 -4 -4 -5 -5 -5 -5 -6 -6 -6 -6 -6 -6 -6 -6 -6 -7 -7 -7 -7 -7 -7 -7 -7 -7 -7 -7 -8 -8 -8 -8 -8 -7 -7 -7 -7 -7 -7 -7 -7 -7
-4 -4 -5 -5 -5 -5 -5 -4 -5 -4 -4 -5 -4 -5 -5 -5 -5 -5 -5 -6 -6 -6 -6 -6 -7 -7 -7 -7 -7 -7 -7 -7 -7 -7 -7 -8 -8 -8 -8 -8 -7 -7 -7 -7 -7 -7 -7 -7 -7
-5 -5 -5 -4 -5 -5 -5 -5 -5 -5 -5 -5 -4 -4 -4 -5 -6 -6 -5 -5 -6 -6 -6 -5 -6 -6 -7 -7 -7 -7 -7 -7 -7 -7 -8 -8 -8 -8 -8 -8 -8 -7 -7 -7 -7 -7 -7 -7 -7
-5 -5 -5 -5 -5 -5 -6 -5 -5 -5 -5 -5 -5 -5 -5 -6 -6 -6 -5 -5 -6 -6 -5 -5 -5 -6 -6 -7 -6 -7 -6 -7 -7 -7 -8 -7 -7 -7 -8 -8 -8 -8 -8 -7 -8 -8 -8 -8 -7
-5 -5 -5 -5 -6 -5 -5 -5 -5 -5 -5 -5 -5 -5 -5 -6 -5 -5 -6 -5 -5 -6 -5 -5 -5 -5 -5 -6 -6 -6 -6 -7 -7 -7 -7 -8 -7 -7 -8 -8 -8 -8 -8 -8 -8 -8 -8 -8 -8
-5 -4 -4 -4 -5 -5 -5 -5 -5 -5 -5 -5 -5 -5 -5 -5 -5 -5 -5 -5 -5 -5 -6 -5 -5 -5 -6 -5 -5 -6 -6 -6 -6 -7 -7 -7 -7 -7 -7 -8 -8 -8 -8 -8 -8 -8 -8 -8 -9
-4 -4 -5 -5 -5 -5 -5 -5 -5 -5 -5 -5 -5 -4 -5 -5 -5 -5 -5 -5 -5 -5 -5 -6 -5 -5 -6 -6 -6 -6 -6 -6 -6 -6 -7 -7 -7 -7 -8 -7 -8 -8 -8 -8 -8 -8 -8 -8 -8
-4 -4 -5 -6 -5 -5 -5 -4 -5 -5 -5 -5 -5 -4 -4 -5 -5 -5 -5 -5 -5 -5 -5 -5 -5 -5 -5 -6 -6 -6 -6 -6 -6 -5 -6 -6 -6 -7 -8 -8 -7 -8 -8 -8 -8 -8 -7 -7 -8
-5 -5 -5 -5 -6 -5 -5 -5 -5 -5 -5 -5 -5 -5 -4 -4 -5 -5 -5 -5 -5 -5 -5 -6 -6 -6 -6 -6 -6 -6 -6 -6 -6 -5 -5 -6 -6 -6 -7 -7 -8 -7 -8 -8 -8 -8 -8 -8 -9
-6 -6 -5 -5 -6 -6 -5 -5 -5 -5 -5 -5 -5 -5 -5 -4 -5 -4 -5 -5 -5 -5 -5 -6 -6 -5 -5 -6 -5 -5 -5 -6 -6 -6 -6 -6 -6 -6 -6 -7 -7 -7 -7 -8 -8 -8 -9 -8 -8
-6 -6 -6 -6 -6 -6 -6 -6 -5 -5 -4 -4 -4 -5 -5 -5 -5 -4 -4 -5 -5 -5 -5 -5 -6 -6 -6 -5 -6 -6 -6 -6 -6 -6 -6 -6 -6 -6 -6 -7 -7 -7 -7 -7 -7 -8 -8 -9 -9
-6 -6 -7 -6 -7 -7 -7 -7 -7 -6 -5 -5 -5 -5 -5 -5 -5 -5 -5 -5 -5 -5 -5 -5 -5 -6 -6 -6 -6 -6 -6 -6 -6 -6 -6 -6 -6 -6 -6 -6 -6 -7 -7 -7 -7 -7 -7 -7 -8
-6 -5 -6 -7 -7 -6 -6 -7 -7 -7 -6 -5 -5 -5 -6 -6 -6 -6 -5 -5 -5 -5 -6 -6 -6 -6 -6 -6 -6 -6 -6 -5 -5 -5 -6 -6 -6 -6 -6 -6 -7 -6 -7 -7 -7 -7 -7 -7 -7
-6 -6 -5 -5 -6 -5 -5 -5 -6 -6 -6 -6 -6 -6 -5 -6 -6 -6 -6 -6 -6 -5 -6 -6 -6 -6 -7 -7 -6 -6 -6 -5 -5 -5 -6 -5 -5 -5 -5 -6 -6 -7 -6 -6 -7 -7 -7 -7 -7
-6 -6 -6 -5 -5 -5 -5 -4 -4 -4 -4 -5 -5 -6 -5 -6 -6 -6 -6 -8 -7 -7 -6 -6 -6 -6 -6 -7 -7 -7 -6 -6 -6 -6 -5 -5 -5 -5 -5 -5 -5 -6 -6 -6 -6 -6 -7 -7 -7
-6 -6 -6 -6 -5 -5 -5 -4 -4 -4 -4 -4 -5 -5 -6 -6 -6 -7 -6 -7 -7 -7 -8 -7 -7 -6 -6 -6 -7 -7 -7 -7 -7 -7 -7 -6 -6 -6 -6 -5 -4 -4 -5 -6 -6 -6 -6 -6 -6
-7 -6 -6 -6 -6 -5 -5 -4 -4 -5 -5 -5 -5 -6 -6 -6 -7 -8 -8 -7 -6 -7 -8 -7 -7 -7 -7 -7 -6 -7 -7 -7 -7 -7 -7 -7 -8 -7 -7 -6 -5 -5 -4 -5 -5 -6 -6 -6 -6
-7 -7 -7 -6 -6 -6 -5 -4 -5 -5 -5 -6 -6 -6 -6 -6 -7 -7 -7 -8 -7 -7 -7 -7 -7 -7 -7 -7 -8 -8 -7 -7 -7 -7 -7 -7 -7 -7 -7 -7 -6 -6 -5 -5 -5 -5 -5 -5 -6
-7 -7 -7 -7 -7 -6 -5 -5 -4 -5 -5 -6 -6 -6 -6 -7 -7 -7 -7 -8 -8 -8 -8 -8 -8 -8 -8 -8 -8 -8 -8 -8 -8 -8 -7 -8 -7 -7 -7 -7 -7 -6 -6 -5 -5 -5 -5 -5 -5
-9 -8 -8 -8 -8 -7 -7 -6 -6 -6 -6 -6 -6 -6 -6 -7 -7 -8 -8 -9 -9 -9 -9 -9 -9 -8 -8 -9 -9 -9 -9 -9 -8 -8 -8 -8 -8 -8 -8 -7 -7 -7 -7 -6 -6 -5 -5 -5 -5
-10 -9 -9 -9 -9 -9 -8 -8 -7 -8 -7 -7 -7 -7 -7 -7 -7 -8 -8 -8 -8 -9 -9 -9 -9 -8 -8 -8 -9 -9 -9 -9 -9 -8 -8 -8 -8 -8 -8 -8 -7 -7 -7 -7 -7 -7 -6 -6 -6
Height
5874 5874 5873 5873 5876 5872 5873 5874 5874 5877 5880 5882 5884 5886 5888 5889 5893 5899 5900 5900 5902 5904 5905 5905 5907 5907 5907 5909 5909 5911 5912 5912 5913 5914 5916 5917 5918 5918 5918 5917 5916 5915 5915 5915 5915 5915 5915 5915 5915
5877 5877 5877 5876 5876 5877 5878 5877 5880 5882 5883 5885 5887 5888 5890 5894 5894 5898 5901 5903 5904 5906 5906 5907 5909 5909 5910 5911 5912 5912 5913 5914 5916 5918 5920 5920 5920 5920 5920 5920 5919 5918 5917 5917 5918 5917 5918 5918 5918
5880 5881 5882 5880 5879 5878 5880 5882 5881 5883 5886 5889 5888 5890 5891 5895 5898 5898 5902 5905 5907 5909 5910 5910 5912 5912 5913 5914 5914 5915 5915 5917 5919 5921 5923 5923 5923 5922 5922 5922 5922 5921 5920 5920 5921 5920 5921 5921 5921
5885 5884 5886 5883 5882 5882 5882 5883 5885 5885 5890 5891 5892 5893 5896 5898 5899 5902 5903 5907 5909 5912 5914 5914 5915 5915 5915 5916 5917 5918 5918 5920 5922 5925 5925 5925 5925 5925 5925 5925 5925 5924 5924 5924 5924 5924 5924 5925 5924
5889 5887 5888 5886 5886 5885 5885 5885 5887 5888 5891 5894 5895 5896 5898 5901 5902 5905 5906 5909 5911 5913 5915 5916 5917 5917 5917 5918 5920 5921 5921 5923 5925 5927 5928 5928 5927 5927 5928 5928 5928 5928 5927 5927 5928 5928 5929 5928 5928
5893 5889 5888 5888 5889 5891 5889 5889 5891 5891 5894 5897 5899 5899 5902 5904 5906 5907 5910 5912 5914 5915 5916 5916 5917 5919 5919 5920 5921 5922 5925 5927 5928 5928 5929 5930 5929 5930 5930 5931 5931 5931 5931 5931 5931 5931 5931 5931 5930
5895 5894 5888 5889 5893 5895 5894 5894 5896 5896 5896 5900 5902 5903 5904 5907 5909 5910 5912 5914 5916 5917 5917 5917 5918 5919 5920 5921 5922 5924 5927 5929 5930 5931 5931 5931 5931 5932 5933 5933 5934 5934 5934 5934 5934 5934 5934 5934 5933
5897 5897 5894 5893 5895 5898 5898 5897 5898 5899 5900 5902 5905 5906 5905 5909 5912 5913 5914 5915 5916 5917 5917 5918 5919 5920 5921 5923 5924 5927 5929 5931 5932 5933 5933 5933 5934 5935 5936 5936 5937 5937 5936 5936 5936 5937 5936 5936 5937
5899 5901 5899 5898 5899 5902 5903 5901 5901 5902 5904 5906 5908 5909 5909 5909 5914 5915 5915 5916 5917 5917 5917 5918 5920 5921 5922 5924 5926 5929 5931 5933 5935 5935 5935 5936 5937 5938 5938 5939 5939 5939 5938 5939 5940 5939 5939 5939 5939
5902 5902 5904 5904 5901 5904 5907 5907 5906 5906 5907 5908 5909 5910 5912 5912 5915 5915 5914 5915 5917 5918 5918 5918 5919 5920 5924 5926 5929 5931 5934 5936 5937 5938 5938 5939 5940 5941 5941 5942 5942 5942 5942 5942 5943 5943 5942 5942 5942
5907 5907 5908 5910 5908 5908 5909 5910 5908 5908 5909 5911 5911 5911 5914 5914 5915 5916 5916 5917 5919 5921 5920 5917 5917 5922 5924 5928 5931 5934 5937 5938 5939 5940 5940 5941 5942 5943 5944 5945 5945 5945 5945 5946 5947 5946 5945 5945 5946
5909 5909 5911 5912 5911 5910 5911 5911 5910 5912 5913 5913 5915 5915 5915 5915 5918 5921 5921 5921 5921 5922 5923 5921 5920 5924 5927 5930 5933 5936 5938 5940 5941 5942 5943 5943 5943 5944 5946 5947 5948 5949 5949 5949 5949 5949 5949 5950 5949
5914 5911 5915 5913 5913 5912 5912 5911 5912 5913 5915 5916 5917 5918 5918 5918 5920 5922 5924 5924 5924 5925 5926 5927 5928 5929 5931 5933 5935 5937 5939 5941 5942 5944 5945 5945 5946 5946 5948 5949 5950 5950 5951 5951 5951 5952 5952 5952 5952
5913 5912 5916 5917 5915 5915 5913 5914 5914 5915 5916 5917 5919 5920 5921 5922 5923 5923 5924 5926 5926 5926 5927 5929 5931 5933 5934 5936 5938 5939 5941 5942 5943 5945 5946 5947 5948 5949 5950 5950 5951 5951 5952 5952 5953 5953 5954 5954 5954
5913 5914 5917 5918 5918 5917 5917 5918 5918 5918 5918 5919 5919 5921 5922 5924 5925 5926 5926 5928 5929 5928 5929 5931 5933 5935 5936 5938 5940 5941 5942 5944 5945 5947 5948 5948 5949 5950 5951 5951 5951 5952 5953 5953 5954 5955 5955 5955 5955
5916 5916 5917 5919 5920 5920 5920 5921 5921 5921 5920 5920 5921 5922 5922 5923 5924 5927 5927 5928 5929 5930 5931 5932 5934 5936 5937 5938 5941 5944 5946 5947 5947 5948 5949 5949 5949 5951 5952 5952 5952 5953 5953 5954 5955 5956 5955 5955 5955
5916 5917 5917 5919 5920 5922 5923 5923 5924 5924 5923 5924 5923 5923 5923 5925 5925 5927 5929 5929 5929 5931 5932 5933 5934 5936 5937 5939 5941 5943 5945 5947 5949 5949 5949 5949 5949 5951 5952 5953 5953 5954 5954 5955 5955 5956 5956 5955 5955
5915 5916 5917 5918 5921 5921 5923 5924 5923 5925 5925 5926 5925 5924 5925 5925 5926 5927 5928 5928 5930 5930 5931 5932 5934 5936 5938 5939 5940 5942 5944 5946 5948 5950 5950 5950 5950 5951 5952 5953 5954 5954 5953 5954 5955 5955 5955 5956 5955
5915 5916 5918 5918 5920 5920 5922 5924 5926 5927 5927 5927 5927 5925 5925 5925 5926 5927 5929 5928 5928 5931 5931 5933 5935 5935 5937 5939 5941 5942 5943 5944 5946 5948 5949 5950 5950 5950 5952 5953 5953 5953 5953 5953 5954 5954 5955 5956 5956
5915 5916 5919 5919 5919 5920 5921 5924 5926 5926 5928 5929 5929 5929 5928 5927 5927 5928 5929 5930 5930 5931 5931 5932 5934 5936 5936 5938 5940 5941 5943 5943 5944 5945 5947 5949 5950 5950 5951 5952 5952 5951 5952 5952 5952 5952 5952 5954 5955
5914 5914 5916 5917 5919 5920 5921 5923 5924 5926 5928 5928 5929 5930 5929 5929 5930 5930 5930 5930 5930 5931 5930 5932 5932 5933 5934 5935 5936 5938 5939 5941 5941 5942 5943 5946 5948 5950 5950 5952 5951 5951 5950 5950 5951 5951 5951 5951 5951
5908 5911 5912 5913 5916 5918 5919 5921 5920 5922 5924 5926 5926 5927 5928 5928 5930 5931 5930 5930 5930 5930 5931 5931 5932 5932 5932 5934 5934 5935 5936 5938 5939 5940 5940 5941 5943 5945 5947 5949 5950 5950 5950 5949 5949 5950 5950 5951 5950
5905 5906 5909 5911 5912 5913 5914 5916 5916 5918 5920 5922 5923 5924 5926 5928 5928 5927 5927 5927 5928 5928 5929 5931 5931 5931 5931 5932 5933 5933 5932 5934 5936 5937 5938 5937 5938 5939 5942 5943 5944 5946 5947 5947 5948 5948 5947 5948 5949
5902 5904 5905 5906 5907 5909 5909 5912 5914 5915 5917 5919 5919 5921 5924 5926 5924 5922 5923 5926 5925 5926 5927 5927 5929 5929 5930 5931 5930 5932 5932 5933 5933 5934 5935 5936 5935 5935 5936 5938 5939 5939 5940 5942 5943 5944 5945 5945 5945
5897 5900 5901 5902 5901 5905 5905 5907 5910 5912 5915 5916 5918 5919 5920 5920 5920 5920 5919 5921 5921 5920 5924 5925 5926 5926 5927 5928 5928 5929 5929 5930 5931 5931 5932 5932 5933 5931 5930 5931 5933 5935 5936 5935 5936 5938 5940 5940 5940
5891 5895 5896 5895 5896 5899 5899 5900 5904 5906 5907 5909 5911 5913 5915 5914 5916 5914 5916 5919 5921 5920 5921 5920 5921 5923 5922 5921 5923 5924 5924 5924 5924 5924 5924 5925 5925 5927 5927 5927 5928 5929 5931 5931 5930 5931 5932 5934 5935
5887 5888 5890 5890 5889 5891 5893 5894 5896 5899 5901 5903 5905 5906 5907 5909 5910 5905 5908 5912 5913 5913 5915 5917 5916 5916 5916 5916 5919 5919 5918 5918 5919 5919 5920 5920 5920 5919 5919 5920 5923 5924 5925 5926 5926 5926 5925 5925 5927
5882 5882 5883 5883 5883 5884 5886 5888 5891 5894 5896 5899 5899 5901 5902 5903 5902 5900 5902 5905 5906 5907 5909 5909 5910 5910 5909 5910 5912 5912 5912 5911 5912 5913 5913 5913 5914 5913 5913 5913 5913 5916 5918 5918 5920 5920 5921 5919 5919
5876 5877 5877 5877 5877 5877 5881 5884 5885 5887 5890 5892 5894 5894 5895 5896 5898 5897 5895 5898 5900 5900 5900 5901 5902 5904 5905 5905 5905 5906 5906 5906 5905 5906 5905 5905 5906 5906 5906 5905 5905 5906 5908 5910 5912 5913 5914 5914 5913
5869 5870 5871 5872 5873 5873 5876 5877 5879 5882 5883 5885 5888 5890 5890 5892 5892 5892 5893 5895 5896 5895 5895 5895 5897 5898 5898 5899 5898 5899 5899 5899 5898 5898 5897 5896 5896 5896 5897 5896 5897 5898 5899 5900 5902 5904 5906 5906 5907
Wind_Speed
21 20 19 16 16 19 24 25 28 28 25 20 19 20 16 20 21 20 15 20 19 18 19 18 16 17 17 16 14 13 11 12 14 16 17 16 14 11 9 10 9 9 10 11 12 13 14 15 17
19 15 15 19 25 30 28 26 23 23 23 20 19 17 15 21 23 22 19 17 19 19 18 18 15 15 16 14 15 13 11 13 16 16 14 12 10 9 9 9 10 10 11 11 12 13 15 17 19
20 16 15 20 28 26 24 21 24 23 20 19 17 15 18 20 21 25 20 18 17 16 16 16 15 14 14 13 13 13 12 15 14 14 12 10 8 9 9 10 10 12 13 13 14 15 17 19 20
18 21 14 17 19 24 25 26 26 25 22 20 17 13 13 22 23 21 21 18 16 13 12 12 12 12 11 12 13 12 13 15 15 12 10 8 7 8 9 10 13 15 16 17 18 19 21 20 20
16 21 20 20 17 21 22 24 23 21 22 19 17 18 16 17 19 19 18 14 12 11 10 8 9 10 11 12 13 11 13 15 13 12 9 7 7 8 9 12 13 15 17 20 21 22 21 19 19
16 21 24 21 17 19 20 24 25 24 21 17 15 19 16 13 14 13 12 12 10 7 9 10 9 8 9 12 13 11 12 13 12 10 9 7 8 9 11 12 14 15 17 18 20 20 20 20 19
18 20 24 24 18 16 21 21 21 22 22 19 17 17 16 11 10 12 11 10 9 8 8 9 10 8 10 11 9 11 13 11 11 9 7 9 10 11 11 13 15 16 17 17 17 18 19 19 17
17 16 20 24 20 17 18 21 22 22 22 19 14 17 19 12 10 11 10 7 6 6 6 7 9 9 9 13 12 14 14 12 10 7 9 10 10 11 14 14 14 15 15 17 16 17 17 17 15
20 13 18 22 23 19 18 23 24 23 21 20 16 14 17 16 10 9 9 9 6 5 7 7 9 10 9 12 17 15 11 11 8 9 9 10 11 14 15 14 15 15 15 14 13 15 16 15 15
22 20 19 18 22 20 16 19 22 21 21 20 18 15 13 15 11 8 6 8 11 15 13 7 11 16 13 17 15 14 11 10 9 9 8 11 14 16 14 13 14 14 13 12 10 12 15 14 14
23 26 20 15 19 19 17 16 16 15 19 16 14 16 13 14 11 9 11 16 19 15 12 5 13 16 16 20 14 12 11 10 9 8 9 14 14 13 12 12 13 11 12 11 9 12 13 13 12
27 24 19 21 20 19 18 16 15 12 14 14 11 13 15 15 12 9 14 18 17 14 14 19 19 19 21 21 15 14 11 8 8 8 10 12 14 12 10 11 12 12 11 10 8 11 12 12 12
17 25 18 17 18 19 18 17 15 13 11 13 11 12 13 14 14 14 14 15 13 15 16 15 21 22 21 18 15 12 9 8 9 9 10 8 8 10 9 10 11 12 11 10 10 10 12 11 11
17 17 19 18 19 16 18 16 16 15 12 12 11 11 11 11 13 13 14 15 13 15 15 15 10 11 11 13 13 10 6 9 10 8 9 6 5 8 8 9 10 9 10 8 10 10 11 11 11
10 16 19 18 18 16 16 16 15 15 15 13 11 10 12 9 10 10 11 12 10 13 15 13 12 10 8 9 10 10 9 8 9 8 6 6 3 5 6 7 7 6 7 9 8 10 10 11 10
10 13 13 16 16 19 17 15 15 15 14 14 13 10 11 13 9 10 9 11 12 11 12 13 12 10 9 9 8 6 3 4 7 7 6 4 4 5 3 5 5 3 4 7 7 6 7 8 8
8 10 11 12 10 13 17 15 12 14 15 12 12 11 12 12 11 10 11 11 12 11 11 11 10 10 10 9 9 8 6 3 3 4 5 4 3 4 4 4 4 4 3 5 5 3 3 5 6
8 8 8 10 10 10 13 15 16 15 16 14 11 10 10 12 10 10 11 12 12 12 12 12 12 10 9 9 9 9 8 6 6 4 3 3 2 4 3 3 5 4 4 3 4 2 1 3 5
9 8 7 8 9 8 10 12 13 14 17 16 13 11 8 8 9 7 8 12 12 12 13 12 10 11 10 8 7 6 5 5 7 8 7 4 4 2 3 4 6 5 5 5 6 6 4 4 5
14 12 10 9 6 9 8 9 11 13 13 13 14 11 9 7 6 5 5 6 11 13 14 13 12 12 12 11 10 8 7 7 7 8 11 10 8 7 6 7 7 7 7 7 7 10 9 7 6
9 13 17 11 11 13 11 8 11 11 10 9 10 12 10 7 3 3 6 6 8 11 13 14 14 13 12 12 12 11 13 12 11 10 10 14 12 10 9 9 9 9 9 9 9 10 11 12 12
12 10 15 16 14 14 12 16 18 16 14 10 9 10 9 10 9 5 7 8 9 9 12 13 14 14 13 14 15 16 16 16 13 12 11 12 15 16 14 13 13 13 12 11 11 11 12 13 13
14 16 13 15 18 17 16 17 22 19 15 13 12 14 12 8 11 13 15 16 13 12 10 10 12 12 13 14 16 18 18 19 17 16 16 15 17 22 21 18 17 18 18 17 15 13 14 14 15
18 19 18 18 18 19 20 17 20 18 17 17 18 15 11 8 14 23 14 19 16 13 12 9 10 11 13 15 16 15 15 18 18 19 19 20 19 21 25 24 22 20 20 21 21 21 19 18 18
23 21 24 24 23 20 24 22 17 17 17 18 18 15 16 15 14 11 4 16 28 20 5 7 11 13 14 14 14 15 15 16 17 19 22 22 22 24 28 29 27 24 22 22 21 20 21 22 22
28 25 26 27 27 25 25 26 22 21 21 18 19 16 19 22 21 15 6 6 14 13 12 11 12 15 17 18 17 18 19 19 20 23 23 24 23 24 27 31 31 28 26 24 21 19 20 21 19
29 28 27 29 32 30 30 30 27 26 26 24 21 19 18 25 28 22 29 18 22 18 16 15 17 18 17 19 21 20 24 24 24 25 25 27 28 28 26 27 32 32 30 29 26 25 24 22 21
26 25 25 28 32 34 35 35 33 32 30 27 26 23 23 25 28 18 16 16 17 19 20 19 20 19 13 14 19 19 24 24 27 28 29 31 31 33 32 28 29 34 35 34 32 30 30 30 29
22 22 25 26 30 34 33 34 36 35 32 32 31 28 27 25 20 18 20 15 22 27 28 23 22 22 20 20 17 18 21 25 30 30 32 38 37 36 34 35 33 31 35 38 37 36 37 36 36
22 23 25 26 26 30 31 31 32 31 32 32 32 34 35 33 29 29 29 30 23 26 31 30 31 34 31 29 27 27 28 30 30 32 36 38 39 39 40 38 37 35 35 36 38 41 43 42 42
Wind_Direction
83 82 92 96 99 107 118 123 125 126 125 124 117 111 124 144 143 135 141 140 132 125 118 114 114 112 113 117 114 108 102 97 104 109 113 110 109 106 95 97 94 97 97 95 101 104 106 105 103
80 82 88 98 103 114 113 113 118 124 130 128 126 116 104 142 134 131 134 135 131 132 127 123 122 120 121 121 124 111 101 104 111 118 114 110 97 79 77 84 95 95 92 94 98 106 108 105 104
84 90 107 107 119 130 122 118 120 130 121 127 132 119 131 137 135 135 130 133 133 133 131 126 123 120 122 129 121 115 115 119 120 118 111 91 77 78 89 96 95 92 90 93 99 105 109 108 103
96 93 102 123 125 136 120 116 120 125 117 126 122 116 122 135 136 136 134 137 141 138 131 119 116 119 123 124 133 125 120 126 120 116 98 80 65 83 94 99 104 100 97 100 103 106 107 103 98
94 100 100 99 107 112 113 117 126 131 128 126 126 119 126 142 137 133 135 137 140 140 128 125 125 135 124 117 139 131 126 120 122 109 87 63 70 83 95 106 107 102 102 102 106 106 103 98 93
109 103 97 96 94 99 103 115 120 118 120 120 116 118 116 134 133 131 131 136 141 150 146 141 138 145 144 125 140 139 125 121 114 100 73 65 78 93 99 107 107 106 103 105 105 104 98 88 82
98 115 104 102 102 99 106 111 112 113 114 115 122 121 117 119 120 130 136 142 145 150 156 141 142 149 150 132 140 136 120 120 107 84 74 81 83 94 104 110 108 106 106 104 104 102 92 84 80
93 109 112 114 113 113 110 110 111 112 115 114 117 124 120 126 130 134 133 136 152 161 164 149 144 145 143 137 137 142 136 122 100 90 85 82 91 104 108 108 105 100 100 98 98 99 93 86 81
93 105 124 123 119 117 118 118 119 121 122 120 123 116 116 122 130 130 136 142 138 134 134 140 139 151 139 149 142 143 126 117 114 90 90 102 113 117 117 116 108 101 94 89 99 105 98 92 92
94 101 119 118 117 115 120 115 114 122 124 128 125 112 110 112 115 94 92 134 110 103 91 117 164 147 154 149 132 138 131 123 99 94 103 117 126 118 117 110 104 101 99 98 102 108 102 97 98
104 102 121 115 119 120 127 120 108 111 112 115 117 115 117 109 105 99 105 112 113 99 71 65 155 154 143 149 137 144 134 113 99 102 116 120 123 112 105 100 90 89 95 93 104 105 100 101 103
111 107 103 108 110 117 121 117 121 128 121 120 127 127 128 117 111 121 130 122 118 102 83 99 114 135 140 143 145 141 128 108 107 115 123 122 124 117 113 99 90 78 75 84 89 99 94 95 92
97 105 105 104 101 102 107 118 129 137 132 133 144 141 129 124 126 138 139 138 127 108 107 107 99 111 121 140 142 141 127 127 116 111 111 113 123 124 122 110 93 80 75 85 82 94 97 90 82
92 93 115 114 101 110 104 103 113 130 136 130 134 137 141 141 138 136 146 148 144 127 120 129 124 117 130 140 152 152 142 121 119 107 105 114 134 126 131 117 102 93 84 90 100 104 98 86 74
91 98 109 99 109 108 115 109 104 114 119 124 126 137 143 152 145 145 134 138 152 136 132 130 144 148 150 171 174 168 157 128 118 117 101 127 126 110 134 126 114 103 88 95 111 115 111 99 83
130 115 108 105 99 92 108 111 114 114 114 114 113 119 142 141 146 143 140 133 148 149 140 139 143 154 153 157 174 192 189 138 130 134 123 113 105 125 155 135 134 124 96 107 121 138 127 114 105
154 131 120 126 107 103 105 111 115 120 118 118 118 113 114 133 142 137 147 144 150 156 150 147 144 151 153 158 170 184 197 199 202 154 144 129 115 113 168 174 164 172 141 128 135 157 113 97 102
197 160 149 140 134 126 123 121 124 130 134 135 129 122 119 120 134 143 153 155 153 155 166 165 164 166 161 159 174 188 206 210 232 236 181 177 181 124 146 184 199 202 161 164 159 175 102 81 93
201 194 175 159 154 167 144 146 143 145 142 137 145 139 133 119 120 138 169 170 172 168 165 173 177 179 179 182 195 203 207 227 228 244 249 218 234 202 160 199 207 212 196 196 180 184 204 215 183
215 211 195 189 164 179 180 173 175 170 165 152 150 149 148 148 150 163 173 200 190 187 183 176 177 192 187 191 197 201 202 200 216 222 234 242 242 237 211 214 228 214 207 205 191 176 187 202 219
213 226 217 211 164 153 175 189 207 200 185 176 163 157 156 159 190 201 215 210 209 200 197 198 195 193 201 200 205 213 218 218 224 230 233 239 248 254 247 233 227 235 234 222 207 196 198 194 196
252 220 203 210 194 194 184 190 198 203 211 208 195 206 188 194 199 217 234 237 219 214 206 204 208 208 207 213 219 218 230 238 229 228 230 226 232 238 244 248 248 243 240 240 227 210 205 212 215
259 252 236 214 212 219 219 207 209 212 217 213 220 231 241 254 230 215 223 220 210 200 202 207 213 213 216 214 221 226 234 243 239 238 236 237 237 236 239 235 237 247 248 247 242 229 223 224 229
244 248 248 239 229 224 229 218 221 222 219 215 222 222 244 239 236 235 244 215 201 196 198 199 222 222 231 236 241 248 252 251 251 256 253 249 238 242 240 241 242 238 243 248 249 248 246 243 248
245 246 244 244 246 239 232 236 227 235 225 230 225 220 214 225 233 255 232 224 218 176 178 199 227 229 238 247 254 259 253 247 257 268 275 275 262 241 238 239 243 246 245 244 249 252 251 253 253
247 244 242 247 246 247 252 250 239 245 256 248 235 233 227 224 223 193 156 272 267 257 213 242 248 245 239 235 245 252 248 239 239 244 250 254 264 261 250 241 240 242 245 243 240 242 247 249 250
244 246 241 242 247 245 248 250 252 244 246 250 253 253 240 240 241 254 283 271 253 246 238 251 256 248 246 243 242 254 254 248 249 251 252 257 260 260 255 249 241 242 243 243 241 240 237 237 242
249 248 241 238 240 240 242 247 249 251 255 256 254 246 232 241 260 268 231 223 252 249 249 254 254 255 256 251 251 249 247 252 256 259 259 261 258 258 256 252 247 239 242 245 245 242 244 244 240
239 244 241 238 239 242 243 246 249 252 254 256 249 242 239 240 248 229 233 274 264 246 243 243 254 257 259 256 257 262 264 266 268 270 265 263 257 255 254 254 252 247 243 246 247 248 247 248 250
232 232 233 242 242 246 247 248 252 255 259 262 261 253 246 246 244 251 256 259 243 244 264 261 259 265 264 263 269 271 271 272 271 271 274 276 281 263 249 250 251 252 250 247 249 252 254 252 252